Welcome, Guest. Please login or register.
Did you miss your activation email?

Username: Password:
Outdoor Wood Furnace Info - Statistics Center
General Statistics
Total Members: 8212
Total Posts: 76619
Total Topics: 7194
Total Categories: 6
Users Online: 7
Most Online: 165 - May 22, 2013, 12:42:02 PM
Online Today: 17
Average registrations per day: 7.11
Average posts per day: 22.02
Average topics per day: 2.55
Total Boards: 50
Latest Member: jasondgray77
Average online per day: 24.91
Male to Female Ratio: 89.8:1
Top 10 Posters Top 10 Boards
mlappin 3879
Scott7m 3740
RSI 2883
willieG 1852
Roger2561 1620
hondaracer2oo4 1421
coolidge 1402
atvalaska 1278
MattyNH 1272
caper 1181
General Outdoor Furnace Discussion 30367
Plumbing 7425
Central Boiler 4650
General Discussion 4383
HeatMaster 3921
Portage & Main 3683
Fire Wood 3237
Home Made 2485
Equipment 2255
Electronics 2184
Top 10 Topics (by Replies) Top 10 Topics (by Views)
new heatmor and having huge issues 491
our wood stoves are horrible but epa thinks this is fine 344
Gasification wood boiler build 303
Almost 172
Wood Consumption vs. Application 144
TYPE of CHAIN SAWS USED 138
ProFab has some issues! 130
Ridgewood stoves 124
Global warming, climate change? Article 124
I'm impressed 123
Synergy Boilers? 580130
HELP! I hate my SHAVER! 467750
TAKE A STAND AGAINST MIDWEST (SYNERGY) BOILERS 447378
Synergy Boilers 98658
Gasification wood boiler build 60906
new heatmor and having huge issues 36046
Truth about Wood Doctor by president 31410
My homemade/modified forced air wood furnace 28394
Suggested Water Temperature on Boiler 28349
Used Hardy Stove info 24629
Top Topic Starters Most Time Online
coolidge 334
Roger2561 221
mlappin 109
slimjim 107
Scott7m 102
d5knapp 90
userdk 71
AirForcePOL 66
hondaracer2oo4 60
heat550 56
slimjim 89d 23h 18m
willieG 89d 16h 0m
RSI 47d 5h 31m
mlappin 37d 6h 41m
Scott7m 35d 21h 14m
koutsman 29d 14h 29m
MD20/20 26d 15h 10m
sceptre74 24d 20h 54m
CountryBoyJohn 21d 4h 36m
Roger2561 20d 18h 39m
Forum History (using forum time offset)
Yearly Summary New Topics New Posts New Members Most Online
* 2018 223 2514 3303 54
* 2017 597 7391 3268 65
December 2017 70 940 259 42
November 2017 77 940 272 40
October 2017 66 673 305 48
September 2017 40 581 253 42
August 2017 50 619 275 31
July 2017 16 164 329 33
June 2017 28 227 264 54
2017-06-01 1 16 9 24
2017-06-02 2 7 6 19
2017-06-03 1 11 11 21
2017-06-04 0 4 10 18
2017-06-05 0 7 4 20
2017-06-06 1 3 3 19
2017-06-07 0 2 12 24
2017-06-08 0 1 17 18
2017-06-09 1 10 11 36
2017-06-10 1 6 9 54
2017-06-11 0 7 10 22
2017-06-12 1 8 8 32
2017-06-13 1 4 9 35
2017-06-14 2 7 11 20
2017-06-15 2 19 4 23
2017-06-16 1 16 6 20
2017-06-17 0 5 4 19
2017-06-18 1 3 12 21
2017-06-19 2 12 9 17
2017-06-20 2 16 7 20
2017-06-21 0 6 3 15
2017-06-22 1 6 8 22
2017-06-23 0 3 8 16
2017-06-24 0 1 4 38
2017-06-25 0 1 5 24
2017-06-26 2 7 8 18
2017-06-27 1 9 15 18
2017-06-28 2 20 13 19
2017-06-29 2 5 13 20
2017-06-30 1 5 15 16
May 2017 30 407 291 45
April 2017 40 748 290 60
March 2017 46 601 306 49
February 2017 43 569 241 65
January 2017 91 922 183 53
* 2016 546 5025 3090 75
* 2015 1317 11279 9513 67
* 2014 2461 21938 4588 110
* 2013 1171 11341 1091 165
* 2012 1863 11381 918 70
* 2011 741 7884 698 76
December 2011 113 1639 94 66
November 2011 141 1631 98 66
October 2011 123 1155 91 76
September 2011 65 726 51 39
August 2011 54 368 42 32
July 2011 25 163 21 41
June 2011 11 83 28 40
May 2011 34 276 34 37
2011-05-01 3 11 4 26
2011-05-02 2 10 1 25
2011-05-03 0 5 0 30
2011-05-04 1 7 0 37
2011-05-05 1 17 1 24
2011-05-06 10 13 3 26
2011-05-07 1 5 2 19
2011-05-08 0 2 1 33
2011-05-09 1 14 0 20
2011-05-10 0 8 4 32
2011-05-11 3 24 1 27
2011-05-12 1 17 0 27
2011-05-13 0 12 0 33
2011-05-14 0 4 0 23
2011-05-15 0 9 2 21
2011-05-16 1 12 0 25
2011-05-17 3 13 3 27
2011-05-18 0 5 1 20
2011-05-19 1 17 3 30
2011-05-20 0 3 0 32
2011-05-21 2 11 0 25
2011-05-22 0 4 0 27
2011-05-23 1 11 3 24
2011-05-24 1 11 1 21
2011-05-25 0 9 1 29
2011-05-26 1 9 1 18
2011-05-27 1 5 0 21
2011-05-28 0 0 1 19
2011-05-29 0 4 0 27
2011-05-30 0 1 0 26
2011-05-31 0 3 1 24
April 2011 49 489 37 32
2011-04-01 4 21 3 25
2011-04-02 1 24 0 27
2011-04-03 2 12 1 24
2011-04-04 2 15 0 25
2011-04-05 1 5 0 21
2011-04-06 1 10 1 25
2011-04-07 2 9 1 26
2011-04-08 1 12 0 20
2011-04-09 0 9 3 23
2011-04-10 2 13 0 22
2011-04-11 0 18 0 23
2011-04-12 1 7 1 22
2011-04-13 2 11 3 19
2011-04-14 8 29 1 24
2011-04-15 1 17 2 29
2011-04-16 1 4 1 29
2011-04-17 1 18 2 27
2011-04-18 1 33 2 28
2011-04-19 0 18 2 20
2011-04-20 1 14 1 23
2011-04-21 1 9 0 24
2011-04-22 2 30 1 29
2011-04-23 0 15 0 27
2011-04-24 2 9 2 23
2011-04-25 2 42 2 29
2011-04-26 3 20 1 28
2011-04-27 3 27 0 27
2011-04-28 2 21 2 32
2011-04-29 2 14 4 26
2011-04-30 0 3 1 24
March 2011 30 310 47 29
February 2011 38 407 65 31
January 2011 58 637 90 32
2011-01-01 0 22 4 20
2011-01-02 2 18 3 23
2011-01-03 4 35 4 21
2011-01-04 0 17 1 31
2011-01-05 1 29 1 19
2011-01-06 1 12 2 28
2011-01-07 2 19 1 21
2011-01-08 1 15 5 26
2011-01-09 2 25 1 30
2011-01-10 1 17 3 25
2011-01-11 4 25 3 26
2011-01-12 2 20 1 24
2011-01-13 1 20 5 29
2011-01-14 2 19 2 23
2011-01-15 0 19 2 25
2011-01-16 5 33 2 25
2011-01-17 2 22 2 32
2011-01-18 2 22 1 26
2011-01-19 1 30 2 22
2011-01-20 2 18 3 24
2011-01-21 2 35 4 21
2011-01-22 2 16 2 24
2011-01-23 3 16 12 27
2011-01-24 2 36 1 27
2011-01-25 4 23 7 26
2011-01-26 3 30 1 21
2011-01-27 2 17 2 23
2011-01-28 0 3 1 22
2011-01-29 2 11 4 19
2011-01-30 3 8 4 24
2011-01-31 0 5 4 21
* 2010 444 2717 284 98
December 2010 51 657 81 27
November 2010 39 339 52 25
October 2010 43 332 38 20
September 2010 34 254 23 14
2010-09-01 2 3 0 9
2010-09-02 0 2 0 11
2010-09-03 0 6 0 8
2010-09-04 0 0 1 9
2010-09-05 0 2 0 9
2010-09-06 0 9 0 13
2010-09-07 0 5 1 10
2010-09-08 1 2 1 12
2010-09-09 0 5 1 13
2010-09-10 1 3 2 12
2010-09-11 1 2 0 9
2010-09-12 0 9 2 11
2010-09-13 1 21 1 11
2010-09-14 2 8 0 12
2010-09-15 6 22 2 12
2010-09-16 2 9 1 13
2010-09-17 3 25 3 10
2010-09-18 0 7 0 11
2010-09-19 5 29 1 14
2010-09-20 2 10 1 13
2010-09-21 0 12 1 12
2010-09-22 0 4 0 10
2010-09-23 1 11 0 10
2010-09-24 1 7 0 10
2010-09-25 0 4 1 13
2010-09-26 3 6 0 10
2010-09-27 0 7 1 12
2010-09-28 1 12 2 12
2010-09-29 1 8 0 14
2010-09-30 1 4 1 12
August 2010 9 72 14 14
July 2010 10 60 8 16
June 2010 11 51 4 15
May 2010 8 42 9 12
April 2010 13 94 10 13
March 2010 157 266 11 14
February 2010 23 193 7 98
January 2010 46 357 27 18
2010-01-01 0 10 0 9
2010-01-02 2 8 1 8
2010-01-03 3 36 1 13
2010-01-04 1 15 2 10
2010-01-05 5 15 1 12
2010-01-06 1 10 2 10
2010-01-07 1 12 1 14
2010-01-08 3 28 0 9
2010-01-09 0 3 0 7
2010-01-10 4 19 1 8
2010-01-11 2 13 2 13
2010-01-12 0 17 1 11
2010-01-13 2 9 1 9
2010-01-14 2 26 0 14
2010-01-15 0 22 0 10
2010-01-16 0 1 2 8
2010-01-17 0 1 0 8
2010-01-18 1 4 0 10
2010-01-19 0 6 1 11
2010-01-20 3 13 3 11
2010-01-21 0 6 0 8
2010-01-22 1 3 0 18
2010-01-23 2 10 1 11
2010-01-24 0 4 1 11
2010-01-25 3 12 0 10
2010-01-26 2 6 1 14
2010-01-27 2 10 1 13
2010-01-28 1 7 1 9
2010-01-29 1 3 0 12
2010-01-30 2 15 2 10
2010-01-31 2 13 1 15
* 2009 217 1823 163 20
* 2008 119 553 148 28
December 2008 17 89 7 10
November 2008 15 97 48 10
2008-11-01 0 4 1 4
2008-11-02 1 4 0 7
2008-11-03 0 0 0 9
2008-11-04 1 2 0 7
2008-11-05 1 4 1 5
2008-11-06 1 4 0 9
2008-11-07 0 5 0 5
2008-11-08 0 2 0 8
2008-11-09 1 5 0 5
2008-11-10 0 10 0 4
2008-11-11 2 7 2 4
2008-11-12 0 0 3 7
2008-11-13 1 2 4 7
2008-11-14 0 2 4 6
2008-11-15 1 4 5 7
2008-11-16 1 5 4 4
2008-11-17 0 3 6 7
2008-11-18 0 0 4 5
2008-11-19 3 8 8 10
2008-11-20 0 5 1 8
2008-11-21 0 7 1 10
2008-11-22 1 3 0 6
2008-11-23 0 0 1 6
2008-11-24 0 5 0 6
2008-11-25 0 0 1 10
2008-11-26 0 0 1 6
2008-11-27 0 3 0 4
2008-11-28 0 1 1 5
2008-11-29 1 1 0 8
2008-11-30 0 1 0 8
October 2008 12 82 9 15
September 2008 6 12 10 19
August 2008 2 14 4 9
July 2008 6 21 9 28
June 2008 11 60 20 21
May 2008 19 64 9 7
April 2008 9 40 3 9
March 2008 22 74 29 12
2008-03-18 1 1 2 1
2008-03-19 0 0 1 1
2008-03-20 2 2 0 3
2008-03-21 0 0 0 1
2008-03-22 0 0 0 1
2008-03-23 0 0 0 1
2008-03-24 0 0 0 2
2008-03-25 3 7 5 12
2008-03-26 5 11 7 10
2008-03-27 3 11 9 10
2008-03-28 4 20 0 6
2008-03-29 0 3 2 4
2008-03-30 1 3 1 6
2008-03-31 3 16 2 4